EW6089 Weather Reports


time (UTC)temp
F
wind
direction
speed
knots
gust
knots
rain 1hr
in
rain 24hr
in
rain mn
in
humidity
%
barometer
mb
20260510171037 56 0.0 1.7 0.00 0.00 0.00 78 1019.0
20260510170036 56 0.0 0.9 0.00 0.00 0.00 78 1018.8
20260510165016 56 0.0 0.0 0.00 0.00 0.00 79 1018.3
20260510164016 55 0.0 2.6 0.00 0.00 0.00 79 1018.0
20260510163016 55 0.0 1.7 0.00 0.00 0.00 81 1018.1
20260510162016 55 0.0 0.9 0.00 0.00 0.00 84 1018.4
20260510161036 54 0.0 1.7 0.00 0.00 0.00 84 1018.3
20260510160016 54 0.0 2.6 0.00 0.00 0.00 85 1017.9
20260510155016 54 0.0 0.0 0.00 0.00 0.00 87 1018.2
20260510154056 54 0.0 0.9 0.00 0.00 0.00 88 1017.9
20260510153016 53 0.0 0.0 0.00 0.00 0.00 91 1017.7
20260510152016 53 0.0 0.0 0.00 0.00 0.00 93 1017.8
20260510151017 52 0.0 0.0 0.00 0.00 0.00 94 1018.1
20260510150016 51 0.0 0.0 0.00 0.00 0.00 95 1017.9
20260510145016 51 0.0 0.0 0.00 0.00 0.00 95 1018.0
20260510144016 50 0.0 0.0 0.00 0.00 0.00 95 1018.0
20260510143016 50 0.0 0.0 0.00 0.00 0.00 95 1017.8
20260510142016 50 0.0 0.0 0.00 0.00 0.00 95 1017.5
20260510141016 49 0.0 0.0 0.00 0.00 0.00 96 1017.1
20260510140016 49 0.0 0.0 0.00 0.00 0.00 95 1017.5
20260510135016 48 0.0 0.0 0.00 0.00 0.00 96 1017.6
20260510134016 48 0.0 0.0 0.00 0.00 0.00 95 1017.7
20260510133016 48 0.0 0.0 0.00 0.00 0.00 95 1018.0
20260510132016 48 0.0 0.0 0.00 0.00 0.00 95 1018.1
20260510131016 48 0.0 0.0 0.00 0.00 0.00 95 1017.9
20260510130015 48 0.0 0.0 0.00 0.00 0.00 95 1018.1
20260510125016 48 0.0 0.0 0.00 0.00 0.00 95 1017.8
20260510124017 48 0.0 0.0 0.00 0.00 0.00 95 1017.9
20260510123015 48 0.0 0.0 0.00 0.00 0.00 95 1017.7
20260510122036 48 0.0 0.0 0.00 0.00 0.00 95 1017.6
20260510121016 48 0.0 0.0 0.00 0.00 0.00 95 1017.5
20260510120016 48 0.0 0.0 0.00 0.00 0.00 94 1017.3
20260510115015 49 0.0 0.0 0.00 0.00 0.00 94 1017.7
20260510114015 49 0.0 0.0 0.00 0.00 0.00 94 1017.8
20260510113036 49 0.0 0.0 0.00 0.00 0.00 94 1017.6
20260510112036 49 0.0 0.0 0.00 0.00 0.00 94 1017.5
20260510111016 50 0.0 0.0 0.00 0.00 0.00 94 1017.4
20260510110015 50 0.0 0.0 0.00 0.00 0.00 94 1017.4
20260510105015 50 0.0 0.0 0.00 0.00 0.00 94 1017.4
20260510104016 50 0.0 0.0 0.00 0.00 0.00 94 1017.4
20260510103015 50 0.0 0.0 0.00 0.00 0.00 94 1017.3
20260510102015 50 0.0 0.0 0.00 0.00 0.00 93 1017.2
20260510101015 50 0.0 0.0 0.00 0.00 0.00 93 1017.1
20260510100015 50 0.0 0.0 0.00 0.00 0.00 93 1016.9
20260510095015 50 0.0 0.0 0.00 0.00 0.00 92 1016.8
20260510094015 50 0.0 0.0 0.00 0.00 0.00 92 1016.8
20260510093035 50 0.0 0.0 0.00 0.00 0.00 92 1016.6
20260510092015 51 0.0 0.0 0.00 0.00 0.00 92 1016.5
20260510091017 51 0.0 0.0 0.00 0.00 0.00 92 1016.5
20260510090016 51 0.0 0.0 0.00 0.00 0.00 91 1016.4
20260510085017 51 0.0 0.0 0.00 0.00 0.00 91 1016.4
20260510084015 52 0.0 0.0 0.00 0.00 0.00 91 1016.4
20260510083017 52 0.0 0.0 0.00 0.00 0.00 91 1016.4
20260510082017 52 0.0 0.0 0.00 0.00 0.00 90 1016.3
20260510081017 52 0.0 0.0 0.00 0.00 0.00 90 1016.4
20260510080017 53 0.0 0.0 0.00 0.00 0.00 90 1016.6
20260510075017 53 0.0 0.0 0.00 0.00 0.00 90 1016.5
20260510074017 53 0.0 0.0 0.00 0.00 0.00 89 1016.5
20260510073017 53 0.0 0.0 0.00 0.00 0.00 89 1016.5
20260510072017 54 0.0 0.0 0.00 0.00 0.00 88 1016.4
20260510071017 54 0.0 0.0 0.00 0.00 0.00 88 1016.5
20260510070017 54 0.0 0.0 0.00 0.00 0.00 87 1016.5
20260510065017 54 0.0 0.0 0.00 0.00 0.00 87 1016.7
20260510064037 55 0.0 0.0 0.00 0.00 0.00 87 1016.7
20260510063017 55 0.0 0.0 0.00 0.00 0.00 87 1016.7
20260510062017 55 0.0 0.0 0.00 0.00 0.00 86 1016.5
20260510061017 55 0.0 0.0 0.00 0.00 0.00 86 1016.4
20260510060017 56 0.0 0.0 0.00 0.00 0.00 85 1016.3
20260510055017 56 0.0 0.0 0.00 0.00 0.00 84 1016.3
20260510054038 56 0.0 0.0 0.00 0.00 0.00 84 1016.3
20260510053017 57 0.0 0.0 0.00 0.00 0.00 84 1016.3
20260510052017 57 0.0 0.0 0.00 0.00 0.00 82 1016.2
20260510051017 57 0.0 0.0 0.00 0.00 0.00 82 1016.3
20260510050037 58 0.0 0.0 0.00 0.00 0.00 82 1016.1
20260510045037 58 0.0 0.0 0.00 0.00 0.00 82 1016.1
20260510044017 59 0.0 0.0 0.00 0.00 0.00 80 1016.0
20260510043117 59 0.0 0.0 0.00 0.00 0.00 79 1016.0
20260510042017 59 0.0 0.0 0.00 0.00 0.00 79 1016.2
20260510041017 60 0.0 0.0 0.00 0.00 0.00 78 1016.1
20260510040017 60 0.0 0.0 0.00 0.00 0.00 77 1016.1
20260510035017 61 0.0 0.0 0.00 0.00 0.00 76 1016.1
20260510034017 62 0.0 0.0 0.00 0.00 0.00 74 1016.1
20260510033017 62 0.0 0.0 0.00 0.00 0.00 74 1016.2
20260510032017 63 0.0 0.0 0.00 0.00 0.00 73 1016.3
20260510031017 63 0.0 0.0 0.00 0.00 0.00 71 1016.3
20260510030037 64 0.0 0.0 0.00 0.00 0.00 71 1016.3
20260510025016 64 0.0 0.0 0.00 0.00 0.00 70 1016.4
20260510024017 65 0.0 0.0 0.00 0.00 0.00 67 1016.3
20260510023036 65 0.0 0.0 0.00 0.00 0.00 66 1016.4
20260510022017 65 0.0 0.0 0.00 0.00 0.00 66 1016.5
20260510021037 65 0.0 0.9 0.00 0.00 0.00 65 1016.6
20260510020016 66 0.0 1.7 0.00 0.00 0.00 64 1016.9
20260510015017 66 0.0 0.9 0.00 0.00 0.00 63 1016.8
20260510014017 66 0.0 2.6 0.00 0.00 0.00 63 1016.9
20260510013016 66 0.0 0.9 0.00 0.00 0.00 62 1017.0
20260510012017 67 0.0 1.7 0.00 0.00 0.00 60 1017.1
20260510011017 67 0.0 1.7 0.00 0.00 0.00 61 1017.0
20260510010017 67 0.0 1.7 0.00 0.00 0.00 59 1017.3
20260510005017 67 0.0 1.7 0.00 0.00 0.00 60 1017.3
20260510004036 68 0.0 0.9 0.00 0.00 0.00 59 1017.4
20260510003017 68 158 0.9 3.5 0.00 0.00 0.00 59 1017.5
20260510002017 68 0.0 1.7 0.00 0.00 0.00 57 1017.4
20260510001017 68 0.0 2.6 0.00 0.00 0.00 57 1017.7
20260510000016 69 0.0 1.7 0.00 0.00 0.00 58 1017.7
20260509235016 69 0.0 0.9 0.00 0.00 0.00 59 1017.8
20260509234016 69 0.0 2.6 0.00 0.00 0.00 58 1017.9
20260509233016 69 0.0 3.5 0.00 0.00 0.00 58 1018.0
20260509232016 69 158 0.9 4.3 0.00 0.00 0.00 58 1018.1
20260509231016 69 225 0.9 3.5 0.00 0.00 0.00 58 1018.2
20260509230017 69 0.0 2.6 0.00 0.00 0.00 58 1018.3
20260509225016 69 158 0.9 2.6 0.00 0.00 0.00 56 1018.6
20260509224036 69 0.0 2.6 0.00 0.00 0.00 56 1018.6
20260509223016 69 158 0.9 2.6 0.00 0.00 0.00 55 1018.6
20260509222036 70 0.0 2.6 0.00 0.00 0.00 55 1018.6
20260509221017 69 0.0 1.7 0.00 0.00 0.00 55 1018.7
20260509220056 69 158 0.9 3.5 0.00 0.00 0.00 54 1018.7
20260509215016 69 158 0.9 3.5 0.00 0.00 0.00 56 1018.8
20260509214016 69 225 0.9 4.3 0.00 0.00 0.00 55 1018.9
20260509213016 69 225 0.9 3.5 0.00 0.00 0.00 54 1019.0
20260509212016 69 0.0 1.7 0.00 0.00 0.00 54 1019.1
20260509211016 69 158 0.9 2.6 0.00 0.00 0.00 55 1019.1
20260509210037 68 225 0.9 2.6 0.00 0.00 0.00 55 1019.2
20260509205016 68 158 0.9 3.5 0.00 0.00 0.00 55 1019.2
20260509204016 68 158 0.9 2.6 0.00 0.00 0.00 56 1019.3
20260509203036 67 158 0.9 2.6 0.00 0.00 0.00 57 1019.5
20260509202016 68 0.0 1.7 0.00 0.00 0.00 57 1019.6
20260509201016 68 0.0 0.9 0.00 0.00 0.00 59 1019.8
20260509200016 67 0.0 0.9 0.00 0.00 0.00 62 1020.0
20260509195016 66 0.0 2.6 0.00 0.00 0.00 61 1020.3
20260509194016 66 0.0 2.6 0.00 0.00 0.00 63 1020.4
20260509193037 66 225 0.9 3.5 0.00 0.00 0.00 62 1020.5
20260509192017 65 158 0.9 4.3 0.00 0.00 0.00 64 1020.6
20260509191036 65 0.0 1.7 0.00 0.00 0.00 64 1020.6
20260509190016 64 0.0 1.7 0.00 0.00 0.00 64 1020.7
20260509185016 64 158 0.9 3.5 0.00 0.00 0.00 64 1020.8
20260509184016 63 0.0 2.6 0.00 0.00 0.00 62 1020.9
20260509183016 63 0.0 1.7 0.00 0.00 0.00 63 1021.0
20260509182016 63 225 0.9 3.5 0.00 0.00 0.00 64 1021.0
20260509181016 62 0.0 1.7 0.00 0.00 0.00 64 1021.0
20260509180016 62 0.0 1.7 0.00 0.00 0.00 64 1021.0
20260509175016 61 158 0.9 3.5 0.00 0.00 0.00 65 1021.3
20260509174016 61 158 0.9 3.5 0.00 0.00 0.00 64 1021.4
20260509173016 61 0.0 2.6 0.00 0.00 0.00 68 1021.2
20260509172016 60 0.0 1.7 0.00 0.00 0.00 70 1021.3